Location: Asheville, NC
(35.6000°N, 82.5500°W)
Time: 11:17:50
(UTC-05:00)

Vanguard 3 - Visible Passes

Search period start: 24 February 2018 00:00
Search period end: 06 March 2018 00:00
Orbit: 508 x 3264 km, 33.3° (Epoch: 24 February)

Date Brightness Start Highest point End Pass type
(mag) Time Alt. Az. Time Alt. Az. Time Alt. Az.
24 Feb 7.9 19:02:31 10° W 19:05:43 27° SSW 19:09:08 10° SE visible
25 Feb 9.0 20:01:58 10° SW 20:03:31 12° SSW 20:05:09 10° S visible
26 Feb 8.3 18:47:16 10° WSW 18:50:15 22° SSW 18:53:13 10° SSE visible
